Simultaneous Nadir Overpasses (SNOs) Predictions

Prediction of SNOs between GOES-14 and NOAA-20 Satellite Orbit:

Table of predicted SNOs for the next 14.0 days since TLE Epoch: 11/4/2023
Index Date Time (GOES-14) GOES-14 Lat,Lon NOAA-20 Lat,Lon Distance(km) Time Diff (sec)
1 11/04/2023 08:26:53 0.11,-108.62 -0.69,-105.19 391.27 80
2 11/05/2023 20:46:11 -0.08,-108.57 -0.49,-110.51 220.54 80
3 11/06/2023 20:30:07 -0.09,-108.57 0.48,-105.97 295.81 80
4 11/08/2023 08:49:17 0.06,-108.62 0.63,-111.26 300.30 80
5 11/09/2023 08:33:13 0.07,-108.62 -0.34,-106.73 216.13 80
6 11/10/2023 20:52:31 -0.04,-108.57 -0.82,-112.04 395.36 80
7 11/11/2023 20:36:26 -0.06,-108.57 0.15,-107.51 121.08 80
8 11/13/2023 08:55:37 0.03,-108.63 0.94,-112.80 475.18 80
9 11/14/2023 08:39:32 0.05,-108.62 -0.04,-108.26 40.90 80
10 11/16/2023 20:40:06 -0.04,-108.56 -0.13,-109.05 55.68 80
11 11/17/2023 20:24:02 -0.05,-108.55 0.85,-104.51 460.00 80
